Regional Weather Roundup
Issued by NWS

Home | Current Version | Previous Version | Text Only | Print | Product List | Glossary Off
Versions: 1 2 3 4 5 6 7 8 9 10 11 12 13 14 15 16 17 18 19 20 21 22 23 24 25 26 27 28 29 30 31 32 33 34 35 36 37 38 39 40 41 42 43 44 45 46 47 48 49 50

000
ASUS43 KLOT 271800
RWRIL

ILLINOIS REGIONAL WEATHER ROUNDUP
NATIONAL WEATHER SERVICE CHICAGO/ROMEOVILLE IL
100 PM CDT MON APR 27 2015

NOTE: "FAIR" INDICATES FEW OR NO CLOUDS BELOW 12,000 FEET WITH NO
SIGNIFICANT WEATHER AND/OR OBSTRUCTIONS TO VISIBILITY.

* THESE STATIONS ARE NOT UNDER NWS QUALITY CONTROL. THEY ALSO MAY NOT
  REPORT WEATHER SUCH AS PRECIPITATION OR FOG.

ILZ001-002-007-009-015-016-024-271900-
NORTHWEST ILLINOIS

CITY           SKY/WX    TMP DP  RH WIND       PRES   REMARKS
MOLINE         SUNNY     62  35  36 N7        30.15F
6HR MIN TEMP:  35; 6HR MAX TEMP:  62;

$$

ILZ003-004-008-010-011-017-018-271900-
NORTH CENTRAL ILLINOIS

CITY           SKY/WX    TMP DP  RH WIND       PRES   REMARKS
ROCKFORD       NOT AVBL
$$

ILZ005-006-012>014-019>023-271900-
NORTHEAST ILLINOIS

CITY           SKY/WX    TMP DP  RH WIND       PRES   REMARKS
CHICAGO-OHARE  MOSUNNY   55  34  45 NE14      30.11F
6HR MIN TEMP:  41; 6HR MAX TEMP:  55;

CHICAGO-MIDWAY NOT AVBL
AURORA         MOSUNNY   58  36  43 N15G21    30.11F
6HR MIN TEMP:  37; 6HR MAX TEMP:  58;

WAUKEGAN       NOT AVBL
DUPAGE AIRPORT MOSUNNY   57  36  45 N15G22    30.10F
6HR MIN TEMP:  40; 6HR MAX TEMP:  57;

WHEELING       SUNNY     52  33  48 NE14G20   30.14F
6HR MIN TEMP:  41; 6HR MAX TEMP:  53;

NORTHERLY ISL    N/A     48  36  63 MISG        N/A
$$

LMZ740>746-271900-
SOUTHERN LAKE MICHIGAN

STATION/POSITION SKY/WX   TEMP    WIND        PRES    VSBY  WAVE
                          AIR SEA DIR/SP/G                  HT/PER
                          (F)     (DEG/KT/KT) (MB)    (MI)  (FT/S)
HARRISON CRIB              42     350/ 14/ 17   N/A
BURNHAM HARBOR             47     350/ 14/ 18   N/A
CALUMET HARBOR             46     350/ 12/ 16   N/A
BURNS HARBOR               42     350/ 17/ 20 1020.7R
MICHIGAN CITY              42     330/ 23/ 27   N/A
MICHIGAN CITY 6N           41 45  350/ 17/ 21   N/A           4/ 5
$$

ILZ025>027-034>036-040-047-049-050-058-095>099-271900-
WEST-CENTRAL ILLINOIS

CITY           SKY/WX    TMP DP  RH WIND       PRES   REMARKS
$$

ILZ028>032-037-038-041>044-048-051>054-059>061-271900-
CENTRAL ILLINOIS

CITY           SKY/WX    TMP DP  RH WIND       PRES   REMARKS
PEORIA         NOT AVBL
SPRINGFIELD    SUNNY     61  37  41 NE14      30.13F
6HR MIN TEMP:  39; 6HR MAX TEMP:  63;

TAYLORVILLE    NOT AVBL
$$

ILZ033-039-045-046-055>057-062-063-271900-
EAST-CENTRAL ILLINOIS

CITY           SKY/WX    TMP DP  RH WIND       PRES   REMARKS
CHAMPAIGN      MOSUNNY   59  37  44 N12G24    30.10S
MATTOON        MOSUNNY   58  39  49 N17       30.08F
$$

ILZ079-100>102-271900-
SOUTHWEST ILLINOIS

CITY           SKY/WX    TMP DP  RH WIND       PRES   REMARKS
BELLEVILLE     MOSUNNY   63  39  42 N16G24    30.09F
CAHOKIA*       SUNNY     63  37  38 N13G22    30.10F
$$

ILZ064>066-069>071-074>076-080>082-084>086-088>090-092>094-271900-
SOUTH-CENTRAL ILLINOIS

CITY           SKY/WX    TMP DP  RH WIND       PRES   REMARKS
CARBONDALE     PTSUNNY   62  37  39 N13G22    30.07F
6HR MIN TEMP:  42; 6HR MAX TEMP:  62;

$$

ILZ067-068-072-073-078-083-087-091-271900-
SOUTHEAST ILLINOIS

CITY           SKY/WX    TMP DP  RH WIND       PRES   REMARKS
$$

ABBREVIATIONS USED IN REMARKS
   TC - TEMPERATURE IN CELSIUS
  WCI - WIND CHILL INDEX
   HX - HEAT INDEX
  VSB - VISIBILITY
$$




USA.gov is the U.S. government's official web portal to all federal, state and local government web resources and services.